FIN1740 LPPT-EFHK

Flight info

Callsign FIN1740
Flight time N/A
Altitude 32000
Route IXIDA DCT BALNO DCT LOTEE DCT AZFIC DCT ERIGA DCT MOKOR UN741 NTS DCT PIWIZ DCT TSU DCT LEQOS DCT CTL/N0453F340 DCT ARDEN/N0453F330 DCT KOMOB DCT KOKOR DCT RIRIP Y364 LAKUT
Aircraft A321/M-SDE3FGHIRWY/LB1

Departure

Time 2026-04-28 17:39
Airport Lisbon Humberto Delgado Airport (LPPT)

Arrival

Time N/A
Airport Helsinki Vantaa Airport (EFHK)
Time Latitude Longitude Altitude Speed Heading
2026-04-28 17:06 38.77027 -9.13094 335 ft 0 kts 78°
2026-04-28 17:19 38.77023 -9.13113 333 ft 4 kts 78°
2026-04-28 17:19 38.77017 -9.13144 332 ft 4 kts 60°
2026-04-28 17:19 38.76999 -9.13166 336 ft 4 kts
2026-04-28 17:19 38.76981 -9.13166 335 ft 1 kts 347°
2026-04-28 17:20 38.76978 -9.13165 335 ft 0 kts 347°
2026-04-28 17:32 38.76982 -9.13166 335 ft 1 kts 348°
2026-04-28 17:32 38.76996 -9.13170 337 ft 3 kts 348°
2026-04-28 17:33 38.77020 -9.13176 337 ft 4 kts 348°
2026-04-28 17:33 38.77060 -9.13187 338 ft 8 kts 348°
2026-04-28 17:33 38.77132 -9.13207 338 ft 13 kts 348°
2026-04-28 17:33 38.77198 -9.13225 336 ft 16 kts 348°
2026-04-28 17:34 38.77324 -9.13301 336 ft 14 kts 278°
2026-04-28 17:34 38.77311 -9.13414 343 ft 12 kts 259°
2026-04-28 17:34 38.77294 -9.13504 350 ft 10 kts 256°
2026-04-28 17:34 38.77275 -9.13607 356 ft 14 kts 257°
2026-04-28 17:35 38.77251 -9.13754 352 ft 20 kts 258°
2026-04-28 17:35 38.77158 -9.13888 359 ft 24 kts 198°
2026-04-28 17:35 38.76985 -9.13976 355 ft 28 kts 203°
2026-04-28 17:35 38.76800 -9.14077 345 ft 30 kts 203°
2026-04-28 17:36 38.76627 -9.14169 337 ft 15 kts 203°
2026-04-28 17:36 38.76592 -9.14244 336 ft 11 kts 298°
2026-04-28 17:36 38.76602 -9.14268 335 ft 0 kts 295°
2026-04-28 17:37 38.76606 -9.14278 333 ft 4 kts 295°
2026-04-28 17:37 38.76626 -9.14328 334 ft 9 kts 303°
2026-04-28 17:37 38.76690 -9.14364 337 ft 12 kts 12°
2026-04-28 17:37 38.76737 -9.14339 336 ft 0 kts 23°
2026-04-28 17:38 38.76738 -9.14338 336 ft 2 kts 23°
2026-04-28 17:38 38.76935 -9.14234 352 ft 68 kts 22°
2026-04-28 17:38 38.77579 -9.13885 365 ft 131 kts 22°
2026-04-28 17:38 38.78605 -9.13380 373 ft 183 kts 18°
2026-04-28 17:39 38.79849 -9.12707 753 ft 202 kts 21°
2026-04-28 17:39 38.81150 -9.11903 1340 ft 213 kts 27°
2026-04-28 17:39 38.83852 -9.09760 2520 ft 248 kts 31°
2026-04-28 17:40 38.85403 -9.08605 2998 ft 265 kts 30°